COSMOS 2251 DEB, 36385

Orbit data source: Space-Track

COSMOS 2251 DEB, 36385 is space debris in LEO originally from a launch on Wed, 16 Jun 1993 UTC launched from the Plesetsk Missile And Space Complex (PKMTR). The debris from Iridium 33, an American commercial communications satellite, has been tracked extensively since its accidental collision with the defunct Russian satellite Cosmos 2251 in 2009. This event, occurring at high speed in low Earth orbit (LEO), generated thousands of pieces of space debris, significantly increasing the risk of further collisions. The Iridium 33 debris cloud has impacted space traffic management and orbital debris mitigation strategies, making it a subject of ongoing study in space situational awareness.

Loading next visibility...
Identifier
36385, 1993-036AZN
Orbit
LEO
Country
Flag of CISCIS
Related business
Manufacturer
Unknown
Mission
Spacecraft
Bus & Motor
Unknown
Mass
Unknown
Launch date (UTC)
1993-06-16 (33 years ago)
Launch vehicle
Unknown
Launch site
Plesetsk Missile And Space Complex (PKMTR)
Object type
Payload
Rocket body
Debris
Shape & HBR
Unknown shape, 0.1 m
Radar Cross Section
Small (<0.1 m²)

Expand to show TLE details & history
Last TLE update: 1 day ago

TLE from 1 day ago
0 COSMOS 2251 DEB
1 36385U 93036AZN 26134.25820113  .00004254  00000-0  53551-3 0  9991
2 36385  73.9680 215.3688 0134773 352.7875   7.1355 14.76106931873507
Epoch: 2026-05-14T06:11Z
TLE epoch observation values (Epoch: 2026-05-14T06:11:48.577Z)
Latitude
0.00005°
Longitude
-109.59004°
Altitude
550.425 km
Speed
7.637 km/s
True Right ascension
14h 21m 28s
True Declination
0° 00' 00"
Sunlit
Object was in full shadow at epoch
Visualization orbit readout
Latitude
Unknown
Longitude
Unknown
Altitude
Unknown
Speed
Unknown
Apparent Right ascension
Unknown
Apparent Declination
Unknown
Sunlit
N/A
Visualization observer readout
Local Sidereal Time
19:51:04
Azimuth
Unknown
Elevation
Unknown
Doppler factor
Unknown
Orbital elements
Apogee altitude
733.8 km
Perigee altitude
544.65 km
Semi-major axis
7,017.362 km
Eccentricity
0.01348
Inclination
73.968°
RAAN
215.3688°
Arg. of periapsis
352.7875°
True anomaly
7.3306°
Mean anomaly
7.1355°
Eccentric anomaly
7.23272°
Mean motion
3.69218 °/min
Orbital period
97.5 mins
BSTAR
0.00053551
Loading maneuver chart data...
Computing Atmospheric mass density...

Documentation

Showing up to 5 results
|